Location: Belloy
(55.7522°N, 118.2333°W)
Time: 23:24:59
(UTC+00:00)

Envisat - Pass Details

Date: 03 December 2021
Orbit: 764 x 766 km, 98.2° (Epoch: 27 January)

Event Time Altitude Azimuth Distance (km) Brightness Sun altitude
Rises 00:46:31 0° 195° (SSW) 3,224 6.8 -10.6°
Reaches altitude 10° 00:49:05 10° 206° (SSW) 2,302 6.2 -11.0°
Maximum altitude 00:53:32 30° 267° (W) 1,346 5.1 -11.5°
Drops below altitude 10° 00:58:01 10° 329° (NNW) 2,318 5.6 -12.1°
Sets 01:00:37 0° 340° (NNW) 3,249 6.2 -12.5°
